Bradshaw AFB, HI

3:40 PM HST on November 11, 2019 (GMT -1000)
Bradshaw Army Air Field

Weather History for PHSF - September, 2019

Change the Weather History Date:

Thursday, September 12, 2019

  Actual Average Record
Temperature  
Mean Temperature 63 °F -  
Max Temperature 76 °F 70 °F 76 °F (2019)
Min Temperature 50 °F 49 °F 44 °F (1997)
Degree Days  
Heating Degree Days 2    
Growing Degree Days 13 (Base 50)    
Moisture  
Dew Point 53 °F    
Average Humidity 74    
Maximum Humidity 93    
Minimum Humidity 43    
Precipitation  
Precipitation 0.00 in - - ()
Sea Level Pressure  
Sea Level Pressure 30.02 in    
Wind  
Wind Speed 5 mph (SSW)    
Max Wind Speed 14 mph    
Max Gust Speed 20 mph    
Visibility 9 miles    
Events      
Averages and records for this station are not official NWS values.
T = Trace of Precipitation, MM = Missing Value Source: NWS Daily Summary

Daily Weather History Graph

Daily Weather History Graph

Search for Another Location

Airport or City:

Astronomy

Sep. 12, 2019 Rise Set
Actual Time 6:09 AM HST 6:27 PM HST
Civil Twilight 5:46 AM HST 6:49 PM HST
Nautical Twilight 5:21 AM HST 7:15 PM HST
Astronomical Twilight 4:55 AM HST 7:41 PM HST
Moon 6:01 PM HST 4:59 AM HST
Length of Visible Light 13h 02m
Length of Day
12h 18m
Waxing Gibbous, 99% of the Moon is Illuminated
Sep 12
Waxing Gibbous
Sep 13
Full
Sep 21
Last Quarter
Sep 28
New
Oct 5
First Quarter

Hourly Weather History & Observations

Time (HST) Temp. Dew Point Humidity Pressure Visibility Wind Dir Wind Speed Gust Speed Precip Events Conditions
1:56 AM - - N/A% - - ESE 4.6 mph - N/A   Unknown
2:56 AM 52.2 °F 48.6 °F 88% 29.93 in 10.0 mi SE 4.6 mph - N/A   Partly Cloudy
3:56 AM 50.9 °F 48.2 °F 90% 29.91 in 10.0 mi SE 3.5 mph - N/A   Clear
4:56 AM 53.1 °F 50.4 °F 91% 29.94 in 10.0 mi SE 3.5 mph - N/A   Partly Cloudy
5:56 AM 53.1 °F 48.4 °F 84% 29.95 in 10.0 mi Calm Calm - N/A   Clear
6:56 AM 55.2 °F 51.1 °F 86% 29.97 in 10.0 mi Calm Calm - N/A   Clear
7:56 AM 60.1 °F 55.8 °F 86% 29.98 in 10.0 mi SSW 3.5 mph - N/A   Scattered Clouds
8:56 AM 64.2 °F 52.5 °F 66% 30.33 in 10.0 mi Calm Calm - N/A   Partly Cloudy
9:56 AM 70.2 °F 54.1 °F 57% 30.32 in 10.0 mi SW 3.5 mph - N/A   Clear
10:56 AM 69.8 °F 55.4 °F 60% 30.31 in 10.0 mi SW 5.8 mph - N/A   Clear
11:56 AM 72.9 °F 55.8 °F 55% 30.29 in 4.0 mi WSW 10.4 mph - N/A   Haze
12:56 PM 70.7 °F 57.9 °F 64% 30.28 in 10.0 mi WSW 12.7 mph 17.3 mph N/A   Clear
1:56 PM 76.5 °F 52.2 °F 43% 30.25 in 10.0 mi WSW 13.8 mph 19.6 mph N/A   Clear
2:56 PM 74.3 °F 55.6 °F 52% 29.86 in 10.0 mi WSW 13.8 mph 19.6 mph N/A   Clear
3:56 PM 72.1 °F 56.3 °F 57% 29.88 in 10.0 mi WSW 11.5 mph - N/A   Partly Cloudy
4:56 PM 67.8 °F 55.8 °F 65% 29.89 in 10.0 mi WSW 12.7 mph - N/A   Partly Cloudy
5:56 PM 63.9 °F 57.2 °F 79% 29.94 in 10.0 mi WSW 4.6 mph - N/A   Clear
6:56 PM 61.0 °F 59.0 °F 93% 29.97 in 10.0 mi Calm Calm - N/A   Partly Cloudy
7:06 PM 60.8 °F 53.6 °F 77% 29.96 in 1.1 mi North - - N/A   Haze
7:11 PM 60.8 °F 53.6 °F 77% 29.95 in 1.1 mi Calm Calm - N/A   Haze
7:16 PM 60.8 °F 53.6 °F 77% 29.95 in 3.0 mi Calm Calm - N/A   Haze
7:26 PM 60.8 °F 53.6 °F 77% 29.94 in 10.0 mi Calm Calm - N/A   Scattered Clouds
7:56 PM 59.0 °F 54.1 °F 84% 29.96 in 10.0 mi Calm Calm - N/A   Clear
8:56 PM 56.5 °F 50.2 °F 79% 29.96 in 10.0 mi ESE 3.5 mph - N/A   Partly Cloudy
9:56 PM 54.5 °F 49.8 °F 84% 29.96 in 10.0 mi ESE 3.5 mph - N/A   Clear
10:56 PM 53.1 °F 47.5 °F 81% 29.95 in 10.0 mi SE 3.5 mph - N/A   Clear
11:56 PM 52.5 °F 45.7 °F 78% 29.93 in 10.0 mi ESE 3.5 mph - N/A   Clear